This demonstration page uses our WeatherBlox Daily Observations layout. Learn more.

Left ArrowRight Arrow

44.8408, -93.29828

Hourly Observations for August 3, 2019

Temp ( °F °C ) Dew Point ( °F °C ) Humidity (%) Winds ( mph kmh ) Pressure ( in mb ) Visibility ( mi km ) Precip ( " mm )
12:53 am 00:53 Mostly Cloudy 76 24.4 65 18.3 69 69 Calm 30.10 1019 10 16 0.00 0.00
1:53 am 01:53 Mostly Cloudy 75 23.9 65 18.3 71 71 Calm 30.10 1019 10 16 0.00 0.00
2:53 am 02:53 Mostly Cloudy 75 23.9 66 18.9 74 74 Calm 30.09 1019 10 16 0.00 0.00
3:53 am 03:53 Mostly Cloudy 74 23.3 66 18.9 76 76 Calm 30.09 1019 10 16 0.00 0.00
4:53 am 04:53 Mostly Cloudy 74 23.3 66 18.9 76 76 WSW 3 6 30.09 1019 10 16 0.00 0.00
5:53 am 05:53 Cloudy 74 23.3 65 18.3 74 74 SW 5 7 30.10 1019 10 16 0.00 0.00
6:53 am 06:53 Mostly Cloudy 74 23.3 66 18.9 76 76 Calm 30.11 1020 10 16 0.00 0.00
7:53 am 07:53 Mostly Cloudy 75 23.9 66 18.9 74 74 Calm 30.11 1020 10 16 0.00 0.00
8:53 am 08:53 Mostly Cloudy 78 25.6 67 19.4 69 69 WSW 3 6 30.11 1020 10 16 0.00 0.00
9:53 am 09:53 Mostly Cloudy 80 26.7 66 18.9 62 62 NNW 3 6 30.11 1020 10 16 0.00 0.00
10:53 am 10:53 Mostly Cloudy 81 27.2 67 19.4 62 62 Calm 30.10 1019 10 16 0.00 0.00
11:53 am 11:53 Mostly Cloudy 83 28.3 65 18.3 55 55 E 8 13 30.08 1019 10 16 0.00 0.00
12:53 pm 12:53 Mostly Cloudy 83 28.3 64 17.8 53 53 ENE 7 11 30.07 1018 10 16 0.00 0.00
1:53 pm 13:53 Mostly Cloudy 84 28.9 67 19.4 57 57 E 8 13 30.06 1018 10 16 0.00 0.00
2:53 pm 14:53 Partly Cloudy 86 30 66 18.9 51 51 SSW 5 7 30.05 1018 10 16 0.00 0.00
3:53 pm 15:53 Mostly Cloudy 84 28.9 65 18.3 53 53 SE 6 9 30.03 1017 10 16 0.00 0.00
4:53 pm 16:53 Mostly Cloudy 84 28.9 64 17.8 51 51 SSW 9 15 30.03 1017 10 16 0.00 0.00
5:24 pm 17:24 Mostly Cloudy with Thunderstorms 78 25.6 66 18.9 67 67 SSW 7 11 30.00 1016 4 6 0.06 1.52
5:45 pm 17:45 Mostly Cloudy with Nearby Thunderstorms 76 24.4 66 18.9 72 72 NNW 13 20 30.00 1016 4 6 0.16 4.06
5:53 pm 17:53 Mostly Cloudy with Nearby Thunderstorms 74 23.3 66 18.9 76 76 NNW 14 22 30.03 1017 4 6 0.16 4.06
6:01 pm 18:01 Mostly Cloudy with Rain 72 22.2 65 18.3 79 79 NNW 13 20 30.01 1016 5 8 0.02 0.51
6:24 pm 18:24 Mostly Cloudy with Nearby Thunderstorms 75 23.9 67 19.4 76 76 NNW 12 19 30.00 1016 10 16 0.06 1.52
6:41 pm 18:41 Mostly Cloudy with Light Rain 78 25.6 67 19.4 69 69 N 7 11 30.00 1016 10 16 0.08 2.03
6:53 pm 18:53 Mostly Cloudy 81 27.2 66 18.9 61 61 N 6 9 30.02 1017 10 16 0.08 2.03
7:53 pm 19:53 Mostly Cloudy 76 24.4 66 18.9 72 72 NW 6 9 30.03 1017 10 16 0.00 0.00
8:53 pm 20:53 Mostly Cloudy 77 25 67 19.4 71 71 WSW 8 13 30.02 1017 10 16 0.00 0.00
9:53 pm 21:53 Partly Cloudy 77 25 66 18.9 69 69 Calm 30.02 1017 10 16 0.00 0.00
10:49 pm 22:49 Mostly Clear 70 21 68 20 94 94 SE 3 6 30.03 1017 10 16 0.00 0.00
11:49 pm 23:49 Mostly Clear 72 22 70 21 94 94 W 3 6 30.03 1017 10 16 0.00 0.00

Powered by AerisWeather